Weather History for Eau Claire, WI

Change the Weather History Date:

Monday, April 30, 2012

  Actual Average Record
Temperature  
Mean Temperature 50 °F 52 °F  
Max Temperature 58 °F 65 °F 89 °F (1952)
Min Temperature 42 °F 40 °F 9 °F (1956)
Degree Days  
Heating Degree Days 15 13  
Month to date heating degree days 524 576  
Since 1 July heating degree days 6304 7641  
Cooling Degree Days 0 0  
Month to date cooling degree days 0 4  
Year to date cooling degree days 14 4  
Moisture  
Dew Point 42 °F    
Average Humidity 79    
Maximum Humidity 96    
Minimum Humidity 62    
Precipitation  
Precipitation 0.07 in 0.11 in 2.00 in (1954)
Month to date precipitation 3.27 2.75  
Year to date precipitation 7.19 6.18  
Snow  
Snow 0.00 in 0.00 in 5.50 in (1909)
Month to date snowfall 0.2 1.9  
Since 1 July snowfall 23.8 46.8  
Snow Depth 0.00 in    
Sea Level Pressure  
Sea Level Pressure 29.96 in    
Wind  
Wind Speed 5 mph (South)    
Max Wind Speed 17 mph    
Max Gust Speed 22 mph    
Visibility 9 miles    
Events Rain    
T = Trace of Precipitation, MM = Missing Value Source: NWS Daily Summary

Daily Weather History Graph

Daily Weather History Graph

Search for Another Location

Airport:

Trip Planner

Search our weather history database for the weather conditions in past years. The results will help you decide how hot, cold, wet, or windy it might be!

Date:

Astronomy

Apr. 30, 2012 Rise Set
Actual Time 5:56 AM CDT 8:10 PM CDT
Civil Twilight 5:24 AM CDT 8:42 PM CDT
Nautical Twilight 4:44 AM CDT 9:23 PM CDT
Astronomical Twilight 3:59 AM CDT 10:07 PM CDT
Moon 1:52 PM CDT (4/30) 2:37 AM CDT (4/30)
Length of Visible Light 15h 18m
Length of Day
14h 14m
Waxing Gibbous, 64% of the Moon is Illuminated
Apr 30
Waxing Gibbous
May 5
Full
May 12
Last Quarter
May 20
New
May 28
First Quarter

Hourly Weather History & Observations

Time (CDT) Temp. Windchill Dew Point Humidity Pressure Visibility Wind Dir Wind Speed Gust Speed Precip Events Conditions
12:18 AM 42.8 °F 40.1 °F 41.0 °F 93% 30.07 in 6.0 mi NE 4.6 mph - 0.03 in Rain Rain
12:31 AM 42.8 °F 40.1 °F 39.2 °F 87% 30.07 in 8.0 mi ENE 4.6 mph - 0.05 in Rain Light Rain
12:56 AM 42.1 °F 37.1 °F 39.9 °F 92% 30.06 in 8.0 mi East 8.1 mph - 0.08 in Rain Rain
1:20 AM 42.8 °F 35.4 °F 39.2 °F 87% 29.99 in 7.0 mi East 15.0 mph - 0.04 in Rain Rain
1:56 AM 42.1 °F 38.4 °F 39.9 °F 92% 30.04 in 10.0 mi SSE 5.8 mph - 0.06 in Rain Light Rain
2:16 AM 42.8 °F 39.3 °F 39.2 °F 87% 30.03 in 10.0 mi SSE 5.8 mph - 0.01 in Rain Light Rain
2:56 AM 43.0 °F 38.8 °F 39.9 °F 89% 30.00 in 10.0 mi East 6.9 mph - 0.01 in   Overcast
3:56 AM 43.0 °F 41.3 °F 41.0 °F 93% 30.01 in 10.0 mi SE 3.5 mph - N/A   Overcast
4:56 AM 43.0 °F - 41.0 °F 93% 29.99 in 7.0 mi Calm Calm - N/A   Overcast
5:56 AM 43.0 °F 40.3 °F 41.0 °F 93% 29.98 in 10.0 mi South 4.6 mph - N/A   Overcast
6:56 AM 43.0 °F - 41.0 °F 93% 29.97 in 8.0 mi Calm Calm - N/A   Overcast
7:56 AM 43.0 °F 39.5 °F 41.0 °F 93% 29.99 in 8.0 mi West 5.8 mph - N/A   Overcast
8:56 AM 44.1 °F - 42.1 °F 93% 29.97 in 10.0 mi Calm Calm - N/A   Overcast
9:56 AM 46.0 °F - 42.1 °F 86% 29.97 in 10.0 mi Calm Calm - N/A   Overcast
10:56 AM 46.9 °F - 42.1 °F 83% 29.97 in 10.0 mi Calm Calm - N/A   Overcast
11:56 AM 50.0 °F - 44.1 °F 80% 29.95 in 10.0 mi WNW 3.5 mph - N/A   Overcast
12:12 PM 50.0 °F - 42.8 °F 76% 29.94 in 10.0 mi WNW 4.6 mph - N/A   Overcast
12:24 PM 50.0 °F - 42.8 °F 76% 29.94 in 10.0 mi SW 5.8 mph - N/A   Overcast
12:56 PM 50.0 °F - 44.1 °F 80% 29.94 in 10.0 mi WSW 6.9 mph - N/A   Overcast
1:56 PM 53.1 °F - 44.1 °F 71% 29.93 in 10.0 mi WSW 5.8 mph - N/A   Overcast
2:56 PM 54.0 °F - 43.0 °F 66% 29.92 in 10.0 mi West 5.8 mph - N/A   Overcast
3:56 PM 55.9 °F - 44.1 °F 64% 29.90 in 10.0 mi SW 8.1 mph - N/A   Overcast
4:56 PM 55.9 °F - 44.1 °F 64% 29.90 in 10.0 mi SSW 8.1 mph - N/A   Overcast
5:56 PM 57.0 °F - 45.0 °F 64% 29.90 in 10.0 mi SSW 8.1 mph - N/A   Mostly Cloudy
6:20 PM 57.2 °F - 44.6 °F 63% 29.89 in 10.0 mi WSW 5.8 mph - N/A   Overcast
6:56 PM 57.2 °F - 44.6 °F 63% 29.88 in 10.0 mi SSW 6.9 mph - N/A   Partly Cloudy
7:56 PM 54.0 °F - 45.0 °F 72% 29.89 in 10.0 mi South 5.8 mph - N/A   Scattered Clouds
8:56 PM 52.0 °F - 45.0 °F 77% 29.90 in 10.0 mi South 3.5 mph - N/A   Clear
9:56 PM 50.0 °F - 44.6 °F 82% 29.89 in 10.0 mi SSE 4.6 mph - N/A   Clear
10:56 PM 48.9 °F - 45.0 °F 86% 29.91 in 10.0 mi SSE 4.6 mph - N/A   Clear
11:56 PM 48.2 °F - 44.6 °F 87% 29.87 in 10.0 mi SSE 5.8 mph - N/A   Clear